owner,sensor,date,latitude,longitude,air_temperature,qcFlag 
COMPS,ioos:station:USF.COMPS:BGC:1,2014-05-28T15:00:00Z,26.4040,-81.8810,28.23,1111122 
COMPS,ioos:station:USF.COMPS:BGC:1,2014-05-28T15:06:00Z,26.4040,-81.8810,28.48,1111122 
COMPS,ioos:station:USF.COMPS:BGC:1,2014-05-28T15:12:00Z,26.4040,-81.8810,28.67,1111122 
COMPS,ioos:station:USF.COMPS:BGC:1,2014-05-28T15:18:00Z,26.4040,-81.8810,28.8,1111122 
COMPS,ioos:station:USF.COMPS:BGC:1,2014-05-28T15:24:00Z,26.4040,-81.8810,28.84,1111122 
COMPS,ioos:station:USF.COMPS:BGC:1,2014-05-28T15:30:00Z,26.4040,-81.8810,28.75,1111122 
COMPS,ioos:station:USF.COMPS:BGC:1,2014-05-28T15:36:00Z,26.4040,-81.8810,28.95,1111122 
COMPS,ioos:station:USF.COMPS:BGC:1,2014-05-28T15:42:00Z,26.4040,-81.8810,29.33,1111122 
COMPS,ioos:station:USF.COMPS:BGC:1,2014-05-28T15:48:00Z,26.4040,-81.8810,29.51,1111122 
COMPS,ioos:station:USF.COMPS:BGC:1,2014-05-28T15:54:00Z,26.4040,-81.8810,29.37,1111122 
COMPS,ioos:station:USF.COMPS:BGC:1,2014-05-28T16:00:00Z,26.4040,-81.8810,29.23,1111122 
COMPS,ioos:station:USF.COMPS:BGC:1,2014-05-28T16:06:00Z,26.4040,-81.8810,28.55,1111122 
COMPS,ioos:station:USF.COMPS:BGC:1,2014-05-28T16:12:00Z,26.4040,-81.8810,27.92,1111122 
COMPS,ioos:station:USF.COMPS:BGC:1,2014-05-28T16:18:00Z,26.4040,-81.8810,27.38,1111122 
COMPS,ioos:station:USF.COMPS:BGC:1,2014-05-28T16:24:00Z,26.4040,-81.8810,27.0,1111122 
COMPS,ioos:station:USF.COMPS:BGC:1,2014-05-28T16:30:00Z,26.4040,-81.8810,26.76,1111122 
COMPS,ioos:station:USF.COMPS:BGC:1,2014-05-28T16:36:00Z,26.4040,-81.8810,26.81,1111122 
COMPS,ioos:station:USF.COMPS:BGC:1,2014-05-28T16:42:00Z,26.4040,-81.8810,27.05,1111122 
COMPS,ioos:station:USF.COMPS:BGC:1,2014-05-28T16:48:00Z,26.4040,-81.8810,27.34,1111122 
COMPS,ioos:station:USF.COMPS:BGC:1,2014-05-28T16:54:00Z,26.4040,-81.8810,28.1,1111122 
COMPS,ioos:station:USF.COMPS:BGC:1,2014-05-28T17:00:00Z,26.4040,-81.8810,28.53,1111122 
COMPS,ioos:station:USF.COMPS:BGC:1,2014-05-28T17:06:00Z,26.4040,-81.8810,28.26,1111122 
COMPS,ioos:station:USF.COMPS:BGC:1,2014-05-28T17:12:00Z,26.4040,-81.8810,28.28,1111122 
COMPS,ioos:station:USF.COMPS:BGC:1,2014-05-28T17:18:00Z,26.4040,-81.8810,28.32,1111122 
COMPS,ioos:station:USF.COMPS:BGC:1,2014-05-28T17:24:00Z,26.4040,-81.8810,28.29,1111122 
COMPS,ioos:station:USF.COMPS:BGC:1,2014-05-28T17:30:00Z,26.4040,-81.8810,28.36,1111122 
COMPS,ioos:station:USF.COMPS:BGC:1,2014-05-28T17:36:00Z,26.4040,-81.8810,28.47,1111122 
COMPS,ioos:station:USF.COMPS:BGC:1,2014-05-28T17:42:00Z,26.4040,-81.8810,28.5,1111122 
COMPS,ioos:station:USF.COMPS:BGC:1,2014-05-28T17:48:00Z,26.4040,-81.8810,28.42,1111122 
COMPS,ioos:station:USF.COMPS:BGC:1,2014-05-28T17:54:00Z,26.4040,-81.8810,28.36,1111122 
COMPS,ioos:station:USF.COMPS:BGC:1,2014-05-28T18:00:00Z,26.4040,-81.8810,28.28,1111122 
COMPS,ioos:station:USF.COMPS:BGC:1,2014-05-28T18:06:00Z,26.4040,-81.8810,28.18,1111122 
COMPS,ioos:station:USF.COMPS:BGC:1,2014-05-28T18:12:00Z,26.4040,-81.8810,28.26,1111122 
COMPS,ioos:station:USF.COMPS:BGC:1,2014-05-28T18:18:00Z,26.4040,-81.8810,28.18,1111122 
COMPS,ioos:station:USF.COMPS:BGC:1,2014-05-28T18:24:00Z,26.4040,-81.8810,28.21,1111122 
COMPS,ioos:station:USF.COMPS:BGC:1,2014-05-28T18:30:00Z,26.4040,-81.8810,28.32,1111122 
COMPS,ioos:station:USF.COMPS:BGC:1,2014-05-28T18:36:00Z,26.4040,-81.8810,28.39,1111122 
COMPS,ioos:station:USF.COMPS:BGC:1,2014-05-28T18:42:00Z,26.4040,-81.8810,28.36,1111122 
COMPS,ioos:station:USF.COMPS:BGC:1,2014-05-28T18:48:00Z,26.4040,-81.8810,28.47,1111122 
COMPS,ioos:station:USF.COMPS:BGC:1,2014-05-28T18:54:00Z,26.4040,-81.8810,28.46,1111122 
COMPS,ioos:station:USF.COMPS:BGC:1,2014-05-28T19:00:00Z,26.4040,-81.8810,28.48,1111122 
COMPS,ioos:station:USF.COMPS:BGC:1,2014-05-28T19:06:00Z,26.4040,-81.8810,28.5,1111122 
COMPS,ioos:station:USF.COMPS:BGC:1,2014-05-28T19:12:00Z,26.4040,-81.8810,28.48,1111122 
COMPS,ioos:station:USF.COMPS:BGC:1,2014-05-28T19:18:00Z,26.4040,-81.8810,28.47,1111122 
COMPS,ioos:station:USF.COMPS:BGC:1,2014-05-28T19:24:00Z,26.4040,-81.8810,28.52,1111122 
COMPS,ioos:station:USF.COMPS:BGC:1,2014-05-28T19:30:00Z,26.4040,-81.8810,28.7,1111122 
COMPS,ioos:station:USF.COMPS:BGC:1,2014-05-28T19:36:00Z,26.4040,-81.8810,28.62,1111122 
COMPS,ioos:station:USF.COMPS:BGC:1,2014-05-28T19:42:00Z,26.4040,-81.8810,28.43,1111122 
COMPS,ioos:station:USF.COMPS:BGC:1,2014-05-28T19:48:00Z,26.4040,-81.8810,28.37,1111122 
COMPS,ioos:station:USF.COMPS:BGC:1,2014-05-28T19:54:00Z,26.4040,-81.8810,28.03,1111122 
COMPS,ioos:station:USF.COMPS:BGC:1,2014-05-28T20:00:00Z,26.4040,-81.8810,27.36,1111122 
COMPS,ioos:station:USF.COMPS:BGC:1,2014-05-28T20:06:00Z,26.4040,-81.8810,27.39,1111122 
COMPS,ioos:station:USF.COMPS:BGC:1,2014-05-28T20:12:00Z,26.4040,-81.8810,27.65,1111122 
COMPS,ioos:station:USF.COMPS:BGC:1,2014-05-28T20:18:00Z,26.4040,-81.8810,28.14,1111122 
COMPS,ioos:station:USF.COMPS:BGC:1,2014-05-28T20:24:00Z,26.4040,-81.8810,27.97,1111122 
COMPS,ioos:station:USF.COMPS:BGC:1,2014-05-28T20:30:00Z,26.4040,-81.8810,27.8,1111122 
COMPS,ioos:station:USF.COMPS:BGC:1,2014-05-28T20:36:00Z,26.4040,-81.8810,28.28,1111122 
COMPS,ioos:station:USF.COMPS:BGC:1,2014-05-28T20:42:00Z,26.4040,-81.8810,28.67,1111122 
COMPS,ioos:station:USF.COMPS:BGC:1,2014-05-28T20:48:00Z,26.4040,-81.8810,28.97,1111122 
COMPS,ioos:station:USF.COMPS:BGC:1,2014-05-28T20:54:00Z,26.4040,-81.8810,28.94,1111122 
COMPS,ioos:station:USF.COMPS:BGC:1,2014-05-28T21:00:00Z,26.4040,-81.8810,29.01,1111122 
COMPS,ioos:station:USF.COMPS:BGC:1,2014-05-28T21:06:00Z,26.4040,-81.8810,28.79,1111122 
COMPS,ioos:station:USF.COMPS:BGC:1,2014-05-28T21:12:00Z,26.4040,-81.8810,28.29,1111122 
COMPS,ioos:station:USF.COMPS:BGC:1,2014-05-28T21:18:00Z,26.4040,-81.8810,28.26,1111122 
COMPS,ioos:station:USF.COMPS:BGC:1,2014-05-28T21:24:00Z,26.4040,-81.8810,28.31,1111122 
COMPS,ioos:station:USF.COMPS:BGC:1,2014-05-28T21:30:00Z,26.4040,-81.8810,28.58,1111122 
COMPS,ioos:station:USF.COMPS:BGC:1,2014-05-28T21:36:00Z,26.4040,-81.8810,28.48,1111122 
COMPS,ioos:station:USF.COMPS:BGC:1,2014-05-28T21:42:00Z,26.4040,-81.8810,28.83,1111122 
COMPS,ioos:station:USF.COMPS:BGC:1,2014-05-28T21:48:00Z,26.4040,-81.8810,28.82,1111122 
COMPS,ioos:station:USF.COMPS:BGC:1,2014-05-28T21:54:00Z,26.4040,-81.8810,28.66,1111122 
COMPS,ioos:station:USF.COMPS:BGC:1,2014-05-28T22:00:00Z,26.4040,-81.8810,28.51,1111122 
COMPS,ioos:station:USF.COMPS:BGC:1,2014-05-28T22:06:00Z,26.4040,-81.8810,28.52,1111122 
COMPS,ioos:station:USF.COMPS:BGC:1,2014-05-28T22:12:00Z,26.4040,-81.8810,28.56,1111122 
COMPS,ioos:station:USF.COMPS:BGC:1,2014-05-28T22:18:00Z,26.4040,-81.8810,28.28,1111122 
COMPS,ioos:station:USF.COMPS:BGC:1,2014-05-28T22:24:00Z,26.4040,-81.8810,28.27,1111122 
COMPS,ioos:station:USF.COMPS:BGC:1,2014-05-28T22:30:00Z,26.4040,-81.8810,28.28,1111122 
COMPS,ioos:station:USF.COMPS:BGC:1,2014-05-28T22:36:00Z,26.4040,-81.8810,28.21,1111122 
COMPS,ioos:station:USF.COMPS:BGC:1,2014-05-28T22:42:00Z,26.4040,-81.8810,28.19,1111122 
COMPS,ioos:station:USF.COMPS:BGC:1,2014-05-28T22:48:00Z,26.4040,-81.8810,28.11,1111122 
COMPS,ioos:station:USF.COMPS:BGC:1,2014-05-28T22:54:00Z,26.4040,-81.8810,27.24,1111122 
COMPS,ioos:station:USF.COMPS:BGC:1,2014-05-28T23:00:00Z,26.4040,-81.8810,27.49,1111122 
COMPS,ioos:station:USF.COMPS:BGC:1,2014-05-28T23:06:00Z,26.4040,-81.8810,27.99,1111122 
COMPS,ioos:station:USF.COMPS:BGC:1,2014-05-28T23:12:00Z,26.4040,-81.8810,28.21,1111122 
COMPS,ioos:station:USF.COMPS:BGC:1,2014-05-28T23:18:00Z,26.4040,-81.8810,28.7,1111122 
COMPS,ioos:station:USF.COMPS:BGC:1,2014-05-28T23:24:00Z,26.4040,-81.8810,27.48,1111122 
COMPS,ioos:station:USF.COMPS:BGC:1,2014-05-28T23:30:00Z,26.4040,-81.8810,27.03,1111122 
COMPS,ioos:station:USF.COMPS:BGC:1,2014-05-28T23:36:00Z,26.4040,-81.8810,27.36,1111122 
COMPS,ioos:station:USF.COMPS:BGC:1,2014-05-28T23:42:00Z,26.4040,-81.8810,27.14,1111122 
COMPS,ioos:station:USF.COMPS:BGC:1,2014-05-28T23:48:00Z,26.4040,-81.8810,27.37,1111122 
COMPS,ioos:station:USF.COMPS:BGC:1,2014-05-28T23:54:00Z,26.4040,-81.8810,27.27,1111122 
COMPS,ioos:station:USF.COMPS:BGC:1,2014-05-29T00:00:00Z,26.4040,-81.8810,27.03,1111122 
COMPS,ioos:station:USF.COMPS:BGC:1,2014-05-29T00:06:00Z,26.4040,-81.8810,24.58,1111122 
COMPS,ioos:station:USF.COMPS:BGC:1,2014-05-29T00:12:00Z,26.4040,-81.8810,26.67,1111122 
COMPS,ioos:station:USF.COMPS:BGC:1,2014-05-29T00:18:00Z,26.4040,-81.8810,26.39,1111122 
COMPS,ioos:station:USF.COMPS:BGC:1,2014-05-29T00:24:00Z,26.4040,-81.8810,26.35,1111122 
COMPS,ioos:station:USF.COMPS:BGC:1,2014-05-29T00:30:00Z,26.4040,-81.8810,26.32,1111122 
COMPS,ioos:station:USF.COMPS:BGC:1,2014-05-29T00:36:00Z,26.4040,-81.8810,26.56,1111122 
COMPS,ioos:station:USF.COMPS:BGC:1,2014-05-29T00:42:00Z,26.4040,-81.8810,26.7,1111122 
COMPS,ioos:station:USF.COMPS:BGC:1,2014-05-29T00:48:00Z,26.4040,-81.8810,26.78,1111122 
COMPS,ioos:station:USF.COMPS:BGC:1,2014-05-29T00:54:00Z,26.4040,-81.8810,26.95,1111122 
COMPS,ioos:station:USF.COMPS:BGC:1,2014-05-29T01:00:00Z,26.4040,-81.8810,26.91,1111122 
COMPS,ioos:station:USF.COMPS:BGC:1,2014-05-29T01:06:00Z,26.4040,-81.8810,27.02,1111122 
COMPS,ioos:station:USF.COMPS:BGC:1,2014-05-29T01:12:00Z,26.4040,-81.8810,27.03,1111122 
COMPS,ioos:station:USF.COMPS:BGC:1,2014-05-29T01:18:00Z,26.4040,-81.8810,27.02,1111122 
COMPS,ioos:station:USF.COMPS:BGC:1,2014-05-29T01:24:00Z,26.4040,-81.8810,26.91,1111122 
COMPS,ioos:station:USF.COMPS:BGC:1,2014-05-29T01:30:00Z,26.4040,-81.8810,26.8,1111122 
COMPS,ioos:station:USF.COMPS:BGC:1,2014-05-29T01:36:00Z,26.4040,-81.8810,26.79,1111122 
COMPS,ioos:station:USF.COMPS:BGC:1,2014-05-29T01:42:00Z,26.4040,-81.8810,26.78,1111122 
COMPS,ioos:station:USF.COMPS:BGC:1,2014-05-29T01:48:00Z,26.4040,-81.8810,26.78,1111122 
COMPS,ioos:station:USF.COMPS:BGC:1,2014-05-29T01:54:00Z,26.4040,-81.8810,26.73,1111122 
COMPS,ioos:station:USF.COMPS:BGC:1,2014-05-29T02:00:00Z,26.4040,-81.8810,26.79,1111122 
COMPS,ioos:station:USF.COMPS:BGC:1,2014-05-29T02:06:00Z,26.4040,-81.8810,26.82,1111122 
COMPS,ioos:station:USF.COMPS:BGC:1,2014-05-29T02:12:00Z,26.4040,-81.8810,26.75,1111122 
COMPS,ioos:station:USF.COMPS:BGC:1,2014-05-29T02:18:00Z,26.4040,-81.8810,26.8,1111122 
COMPS,ioos:station:USF.COMPS:BGC:1,2014-05-29T02:24:00Z,26.4040,-81.8810,26.39,1111122 
COMPS,ioos:station:USF.COMPS:BGC:1,2014-05-29T02:30:00Z,26.4040,-81.8810,26.41,1111122 
COMPS,ioos:station:USF.COMPS:BGC:1,2014-05-29T02:36:00Z,26.4040,-81.8810,26.27,1111122 
COMPS,ioos:station:USF.COMPS:BGC:1,2014-05-29T02:42:00Z,26.4040,-81.8810,26.35,1111122 
COMPS,ioos:station:USF.COMPS:BGC:1,2014-05-29T02:48:00Z,26.4040,-81.8810,26.39,1111122 
COMPS,ioos:station:USF.COMPS:BGC:1,2014-05-29T02:54:00Z,26.4040,-81.8810,26.38,1111122 
COMPS,ioos:station:USF.COMPS:BGC:1,2014-05-29T03:00:00Z,26.4040,-81.8810,26.34,1111122 
COMPS,ioos:station:USF.COMPS:BGC:1,2014-05-29T03:06:00Z,26.4040,-81.8810,26.28,1111122 
COMPS,ioos:station:USF.COMPS:BGC:1,2014-05-29T03:12:00Z,26.4040,-81.8810,26.19,1111122 
COMPS,ioos:station:USF.COMPS:BGC:1,2014-05-29T03:18:00Z,26.4040,-81.8810,26.22,1111122 
COMPS,ioos:station:USF.COMPS:BGC:1,2014-05-29T03:24:00Z,26.4040,-81.8810,26.24,1111122 
COMPS,ioos:station:USF.COMPS:BGC:1,2014-05-29T03:30:00Z,26.4040,-81.8810,26.14,1111122 
COMPS,ioos:station:USF.COMPS:BGC:1,2014-05-29T03:36:00Z,26.4040,-81.8810,26.24,1111122 
COMPS,ioos:station:USF.COMPS:BGC:1,2014-05-29T03:42:00Z,26.4040,-81.8810,26.07,1111122 
COMPS,ioos:station:USF.COMPS:BGC:1,2014-05-29T03:48:00Z,26.4040,-81.8810,25.85,1111122 
COMPS,ioos:station:USF.COMPS:BGC:1,2014-05-29T03:54:00Z,26.4040,-81.8810,25.66,1111122 
COMPS,ioos:station:USF.COMPS:BGC:1,2014-05-29T04:00:00Z,26.4040,-81.8810,25.45,1111122 
COMPS,ioos:station:USF.COMPS:BGC:1,2014-05-29T04:06:00Z,26.4040,-81.8810,25.21,1111122 
COMPS,ioos:station:USF.COMPS:BGC:1,2014-05-29T04:12:00Z,26.4040,-81.8810,25.03,1111122 
COMPS,ioos:station:USF.COMPS:BGC:1,2014-05-29T04:18:00Z,26.4040,-81.8810,25.15,1111122 
COMPS,ioos:station:USF.COMPS:BGC:1,2014-05-29T04:24:00Z,26.4040,-81.8810,25.08,1111122 
COMPS,ioos:station:USF.COMPS:BGC:1,2014-05-29T04:30:00Z,26.4040,-81.8810,25.19,1111122 
COMPS,ioos:station:USF.COMPS:BGC:1,2014-05-29T04:36:00Z,26.4040,-81.8810,25.31,1111122 
COMPS,ioos:station:USF.COMPS:BGC:1,2014-05-29T04:42:00Z,26.4040,-81.8810,25.34,1111122 
COMPS,ioos:station:USF.COMPS:BGC:1,2014-05-29T04:48:00Z,26.4040,-81.8810,25.29,1111122 
COMPS,ioos:station:USF.COMPS:BGC:1,2014-05-29T04:54:00Z,26.4040,-81.8810,24.87,1111122 
COMPS,ioos:station:USF.COMPS:BGC:1,2014-05-29T05:00:00Z,26.4040,-81.8810,24.76,1111122 
COMPS,ioos:station:USF.COMPS:BGC:1,2014-05-29T05:06:00Z,26.4040,-81.8810,24.81,1111122 
COMPS,ioos:station:USF.COMPS:BGC:1,2014-05-29T05:12:00Z,26.4040,-81.8810,24.6,1111122 
COMPS,ioos:station:USF.COMPS:BGC:1,2014-05-29T05:18:00Z,26.4040,-81.8810,24.66,1111122 
COMPS,ioos:station:USF.COMPS:BGC:1,2014-05-29T05:24:00Z,26.4040,-81.8810,24.7,1111122 
COMPS,ioos:station:USF.COMPS:BGC:1,2014-05-29T05:30:00Z,26.4040,-81.8810,24.84,1111122 
COMPS,ioos:station:USF.COMPS:BGC:1,2014-05-29T05:36:00Z,26.4040,-81.8810,24.68,1111122 
COMPS,ioos:station:USF.COMPS:BGC:1,2014-05-29T05:42:00Z,26.4040,-81.8810,24.53,1111122 
COMPS,ioos:station:USF.COMPS:BGC:1,2014-05-29T05:48:00Z,26.4040,-81.8810,24.46,1111122 
COMPS,ioos:station:USF.COMPS:BGC:1,2014-05-29T05:54:00Z,26.4040,-81.8810,24.44,1111122 
COMPS,ioos:station:USF.COMPS:BGC:1,2014-05-29T06:00:00Z,26.4040,-81.8810,24.42,1111122 
COMPS,ioos:station:USF.COMPS:BGC:1,2014-05-29T06:06:00Z,26.4040,-81.8810,24.36,1111122 
COMPS,ioos:station:USF.COMPS:BGC:1,2014-05-29T06:12:00Z,26.4040,-81.8810,24.3,1111122 
COMPS,ioos:station:USF.COMPS:BGC:1,2014-05-29T06:18:00Z,26.4040,-81.8810,24.25,1111122 
COMPS,ioos:station:USF.COMPS:BGC:1,2014-05-29T06:24:00Z,26.4040,-81.8810,24.33,1111122 
COMPS,ioos:station:USF.COMPS:BGC:1,2014-05-29T06:30:00Z,26.4040,-81.8810,24.38,1111122 
COMPS,ioos:station:USF.COMPS:BGC:1,2014-05-29T06:36:00Z,26.4040,-81.8810,24.22,1111122 
COMPS,ioos:station:USF.COMPS:BGC:1,2014-05-29T06:42:00Z,26.4040,-81.8810,24.31,1111122 
COMPS,ioos:station:USF.COMPS:BGC:1,2014-05-29T06:48:00Z,26.4040,-81.8810,24.35,1111122 
COMPS,ioos:station:USF.COMPS:BGC:1,2014-05-29T06:54:00Z,26.4040,-81.8810,24.34,1111122 
COMPS,ioos:station:USF.COMPS:BGC:1,2014-05-29T07:00:00Z,26.4040,-81.8810,24.36,1111122 
COMPS,ioos:station:USF.COMPS:BGC:1,2014-05-29T07:06:00Z,26.4040,-81.8810,24.41,1111122 
COMPS,ioos:station:USF.COMPS:BGC:1,2014-05-29T07:12:00Z,26.4040,-81.8810,24.46,1111122 
COMPS,ioos:station:USF.COMPS:BGC:1,2014-05-29T07:18:00Z,26.4040,-81.8810,24.44,1111122 
COMPS,ioos:station:USF.COMPS:BGC:1,2014-05-29T07:24:00Z,26.4040,-81.8810,24.33,1111122 
COMPS,ioos:station:USF.COMPS:BGC:1,2014-05-29T07:30:00Z,26.4040,-81.8810,24.29,1111122 
COMPS,ioos:station:USF.COMPS:BGC:1,2014-05-29T07:36:00Z,26.4040,-81.8810,24.31,1111122 
COMPS,ioos:station:USF.COMPS:BGC:1,2014-05-29T07:42:00Z,26.4040,-81.8810,24.27,1111122 
COMPS,ioos:station:USF.COMPS:BGC:1,2014-05-29T07:48:00Z,26.4040,-81.8810,24.29,1111122 
COMPS,ioos:station:USF.COMPS:BGC:1,2014-05-29T07:54:00Z,26.4040,-81.8810,24.39,1111122 
COMPS,ioos:station:USF.COMPS:BGC:1,2014-05-29T08:00:00Z,26.4040,-81.8810,24.37,1111122 
COMPS,ioos:station:USF.COMPS:BGC:1,2014-05-29T08:06:00Z,26.4040,-81.8810,24.36,1111122 
COMPS,ioos:station:USF.COMPS:BGC:1,2014-05-29T08:12:00Z,26.4040,-81.8810,24.36,1111122 
COMPS,ioos:station:USF.COMPS:BGC:1,2014-05-29T08:18:00Z,26.4040,-81.8810,24.2,1111122 
COMPS,ioos:station:USF.COMPS:BGC:1,2014-05-29T08:24:00Z,26.4040,-81.8810,24.05,1111122 
COMPS,ioos:station:USF.COMPS:BGC:1,2014-05-29T08:30:00Z,26.4040,-81.8810,24.06,1111122 
COMPS,ioos:station:USF.COMPS:BGC:1,2014-05-29T08:36:00Z,26.4040,-81.8810,24.07,1111122 
COMPS,ioos:station:USF.COMPS:BGC:1,2014-05-29T08:42:00Z,26.4040,-81.8810,23.9,1111122 
COMPS,ioos:station:USF.COMPS:BGC:1,2014-05-29T08:48:00Z,26.4040,-81.8810,23.94,1111122 
COMPS,ioos:station:USF.COMPS:BGC:1,2014-05-29T08:54:00Z,26.4040,-81.8810,23.9,1111122 
COMPS,ioos:station:USF.COMPS:BGC:1,2014-05-29T09:00:00Z,26.4040,-81.8810,23.92,1111122 
COMPS,ioos:station:USF.COMPS:BGC:1,2014-05-29T09:06:00Z,26.4040,-81.8810,23.94,1111122 
COMPS,ioos:station:USF.COMPS:BGC:1,2014-05-29T09:12:00Z,26.4040,-81.8810,23.96,1111122 
COMPS,ioos:station:USF.COMPS:BGC:1,2014-05-29T09:18:00Z,26.4040,-81.8810,23.91,1111122 
COMPS,ioos:station:USF.COMPS:BGC:1,2014-05-29T09:24:00Z,26.4040,-81.8810,23.93,1111122 
COMPS,ioos:station:USF.COMPS:BGC:1,2014-05-29T09:30:00Z,26.4040,-81.8810,23.88,1111122 
COMPS,ioos:station:USF.COMPS:BGC:1,2014-05-29T09:36:00Z,26.4040,-81.8810,23.84,1111122 
COMPS,ioos:station:USF.COMPS:BGC:1,2014-05-29T09:42:00Z,26.4040,-81.8810,23.81,1111122 
COMPS,ioos:station:USF.COMPS:BGC:1,2014-05-29T09:48:00Z,26.4040,-81.8810,23.73,1111122 
COMPS,ioos:station:USF.COMPS:BGC:1,2014-05-29T09:54:00Z,26.4040,-81.8810,23.67,1111122 
COMPS,ioos:station:USF.COMPS:BGC:1,2014-05-29T10:00:00Z,26.4040,-81.8810,23.69,1111122 
COMPS,ioos:station:USF.COMPS:BGC:1,2014-05-29T10:06:00Z,26.4040,-81.8810,23.66,1111122 
COMPS,ioos:station:USF.COMPS:BGC:1,2014-05-29T10:12:00Z,26.4040,-81.8810,23.61,1111122 
COMPS,ioos:station:USF.COMPS:BGC:1,2014-05-29T10:18:00Z,26.4040,-81.8810,23.61,1111122 
COMPS,ioos:station:USF.COMPS:BGC:1,2014-05-29T10:24:00Z,26.4040,-81.8810,23.64,1111122 
COMPS,ioos:station:USF.COMPS:BGC:1,2014-05-29T10:30:00Z,26.4040,-81.8810,23.64,1111122 
COMPS,ioos:station:USF.COMPS:BGC:1,2014-05-29T10:36:00Z,26.4040,-81.8810,23.61,1111122 
COMPS,ioos:station:USF.COMPS:BGC:1,2014-05-29T10:42:00Z,26.4040,-81.8810,23.6,1111122 
COMPS,ioos:station:USF.COMPS:BGC:1,2014-05-29T10:48:00Z,26.4040,-81.8810,23.63,1111122 
COMPS,ioos:station:USF.COMPS:BGC:1,2014-05-29T10:54:00Z,26.4040,-81.8810,23.63,1111122 
COMPS,ioos:station:USF.COMPS:BGC:1,2014-05-29T11:00:00Z,26.4040,-81.8810,23.69,1111122 
COMPS,ioos:station:USF.COMPS:BGC:1,2014-05-29T11:06:00Z,26.4040,-81.8810,23.8,1111122 
COMPS,ioos:station:USF.COMPS:BGC:1,2014-05-29T11:12:00Z,26.4040,-81.8810,23.93,1111122 
COMPS,ioos:station:USF.COMPS:BGC:1,2014-05-29T11:18:00Z,26.4040,-81.8810,24.06,1111122 
COMPS,ioos:station:USF.COMPS:BGC:1,2014-05-29T11:24:00Z,26.4040,-81.8810,24.14,1111122 
COMPS,ioos:station:USF.COMPS:BGC:1,2014-05-29T11:30:00Z,26.4040,-81.8810,24.27,1111122 
COMPS,ioos:station:USF.COMPS:BGC:1,2014-05-29T11:36:00Z,26.4040,-81.8810,24.38,1111122 
COMPS,ioos:station:USF.COMPS:BGC:1,2014-05-29T11:42:00Z,26.4040,-81.8810,24.56,1111122 
COMPS,ioos:station:USF.COMPS:BGC:1,2014-05-29T11:48:00Z,26.4040,-81.8810,24.6,1111122 
COMPS,ioos:station:USF.COMPS:BGC:1,2014-05-29T11:54:00Z,26.4040,-81.8810,24.83,1111122 
COMPS,ioos:station:USF.COMPS:BGC:1,2014-05-29T12:00:00Z,26.4040,-81.8810,25.13,1111122 
COMPS,ioos:station:USF.COMPS:BGC:1,2014-05-29T12:06:00Z,26.4040,-81.8810,25.46,1111122 
COMPS,ioos:station:USF.COMPS:BGC:1,2014-05-29T12:12:00Z,26.4040,-81.8810,25.7,1111122 
COMPS,ioos:station:USF.COMPS:BGC:1,2014-05-29T12:18:00Z,26.4040,-81.8810,25.7,1111122 
COMPS,ioos:station:USF.COMPS:BGC:1,2014-05-29T12:24:00Z,26.4040,-81.8810,25.51,1111122 
COMPS,ioos:station:USF.COMPS:BGC:1,2014-05-29T12:30:00Z,26.4040,-81.8810,25.55,1111122 
COMPS,ioos:station:USF.COMPS:BGC:1,2014-05-29T12:36:00Z,26.4040,-81.8810,25.65,1111122 
COMPS,ioos:station:USF.COMPS:BGC:1,2014-05-29T12:42:00Z,26.4040,-81.8810,25.89,1111122 
COMPS,ioos:station:USF.COMPS:BGC:1,2014-05-29T12:48:00Z,26.4040,-81.8810,25.92,1111122 
COMPS,ioos:station:USF.COMPS:BGC:1,2014-05-29T12:54:00Z,26.4040,-81.8810,26.35,1111122 
COMPS,ioos:station:USF.COMPS:BGC:1,2014-05-29T13:00:00Z,26.4040,-81.8810,26.71,1111122 
COMPS,ioos:station:USF.COMPS:BGC:1,2014-05-29T13:06:00Z,26.4040,-81.8810,26.46,1111122 
COMPS,ioos:station:USF.COMPS:BGC:1,2014-05-29T13:12:00Z,26.4040,-81.8810,26.62,1111122 
COMPS,ioos:station:USF.COMPS:BGC:1,2014-05-29T13:18:00Z,26.4040,-81.8810,26.79,1111122 
COMPS,ioos:station:USF.COMPS:BGC:1,2014-05-29T13:24:00Z,26.4040,-81.8810,26.96,1111122 
COMPS,ioos:station:USF.COMPS:BGC:1,2014-05-29T13:30:00Z,26.4040,-81.8810,27.25,1111122 
COMPS,ioos:station:USF.COMPS:BGC:1,2014-05-29T13:36:00Z,26.4040,-81.8810,27.12,1111122 
COMPS,ioos:station:USF.COMPS:BGC:1,2014-05-29T13:42:00Z,26.4040,-81.8810,27.5,1111122 
COMPS,ioos:station:USF.COMPS:BGC:1,2014-05-29T13:48:00Z,26.4040,-81.8810,27.56,1111122 
COMPS,ioos:station:USF.COMPS:BGC:1,2014-05-29T13:54:00Z,26.4040,-81.8810,27.72,1111122 
COMPS,ioos:station:USF.COMPS:BGC:1,2014-05-29T14:00:00Z,26.4040,-81.8810,27.77,1111122 
COMPS,ioos:station:USF.COMPS:BGC:1,2014-05-29T14:06:00Z,26.4040,-81.8810,28.09,1111122 
COMPS,ioos:station:USF.COMPS:BGC:1,2014-05-29T14:12:00Z,26.4040,-81.8810,28.05,1111122 
COMPS,ioos:station:USF.COMPS:BGC:1,2014-05-29T14:18:00Z,26.4040,-81.8810,28.22,1111122 
COMPS,ioos:station:USF.COMPS:BGC:1,2014-05-29T14:24:00Z,26.4040,-81.8810,28.35,1111122 
COMPS,ioos:station:USF.COMPS:BGC:1,2014-05-29T14:30:00Z,26.4040,-81.8810,28.16,1111122 
COMPS,ioos:station:USF.COMPS:BGC:1,2014-05-29T14:36:00Z,26.4040,-81.8810,28.3,1111122 
COMPS,ioos:station:USF.COMPS:BGC:1,2014-05-29T14:42:00Z,26.4040,-81.8810,28.65,1111122 
COMPS,ioos:station:USF.COMPS:BGC:1,2014-05-29T14:48:00Z,26.4040,-81.8810,28.65,1111122 
COMPS,ioos:station:USF.COMPS:BGC:1,2014-05-29T14:54:00Z,26.4040,-81.8810,28.58,1111122 
COMPS,ioos:station:USF.COMPS:BGC:1,2014-05-29T15:00:00Z,26.4040,-81.8810,28.76,1111122 
COMPS,ioos:station:USF.COMPS:BGC:1,2014-05-29T15:06:00Z,26.4040,-81.8810,28.72,1111122 
COMPS,ioos:station:USF.COMPS:BGC:1,2014-05-29T15:12:00Z,26.4040,-81.8810,28.64,1111122 
COMPS,ioos:station:USF.COMPS:BGC:1,2014-05-29T15:18:00Z,26.4040,-81.8810,28.8,1111122 
COMPS,ioos:station:USF.COMPS:BGC:1,2014-05-29T15:24:00Z,26.4040,-81.8810,28.62,1111122 
COMPS,ioos:station:USF.COMPS:BGC:1,2014-05-29T15:30:00Z,26.4040,-81.8810,28.49,1111122 
COMPS,ioos:station:USF.COMPS:BGC:1,2014-05-29T15:36:00Z,26.4040,-81.8810,28.44,1111122 
COMPS,ioos:station:USF.COMPS:BGC:1,2014-05-29T15:42:00Z,26.4040,-81.8810,28.44,1111122 
COMPS,ioos:station:USF.COMPS:BGC:1,2014-05-29T15:48:00Z,26.4040,-81.8810,28.54,1111122 
COMPS,ioos:station:USF.COMPS:BGC:1,2014-05-29T15:54:00Z,26.4040,-81.8810,28.65,1111122 
COMPS,ioos:station:USF.COMPS:BGC:1,2014-05-29T16:00:00Z,26.4040,-81.8810,28.71,1111122 
COMPS,ioos:station:USF.COMPS:BGC:1,2014-05-29T16:06:00Z,26.4040,-81.8810,28.61,1111122 
COMPS,ioos:station:USF.COMPS:BGC:1,2014-05-29T16:12:00Z,26.4040,-81.8810,28.53,1111122 
COMPS,ioos:station:USF.COMPS:BGC:1,2014-05-29T16:18:00Z,26.4040,-81.8810,28.57,1111122 
COMPS,ioos:station:USF.COMPS:BGC:1,2014-05-29T16:24:00Z,26.4040,-81.8810,28.49,1111122 
COMPS,ioos:station:USF.COMPS:BGC:1,2014-05-29T16:30:00Z,26.4040,-81.8810,28.46,1111122 
COMPS,ioos:station:USF.COMPS:BGC:1,2014-05-29T16:36:00Z,26.4040,-81.8810,28.45,1111122 
COMPS,ioos:station:USF.COMPS:BGC:1,2014-05-29T16:42:00Z,26.4040,-81.8810,28.39,1111122 
COMPS,ioos:station:USF.COMPS:BGC:1,2014-05-29T16:48:00Z,26.4040,-81.8810,28.27,1111122 
COMPS,ioos:station:USF.COMPS:BGC:1,2014-05-29T16:54:00Z,26.4040,-81.8810,28.27,1111122 
COMPS,ioos:station:USF.COMPS:BGC:1,2014-05-29T17:00:00Z,26.4040,-81.8810,28.28,1111122 
COMPS,ioos:station:USF.COMPS:BGC:1,2014-05-29T17:06:00Z,26.4040,-81.8810,28.24,1111122 
COMPS,ioos:station:USF.COMPS:BGC:1,2014-05-29T17:12:00Z,26.4040,-81.8810,28.16,1111122 
COMPS,ioos:station:USF.COMPS:BGC:1,2014-05-29T17:18:00Z,26.4040,-81.8810,28.04,1111122 
COMPS,ioos:station:USF.COMPS:BGC:1,2014-05-29T17:24:00Z,26.4040,-81.8810,28.08,1111122 
COMPS,ioos:station:USF.COMPS:BGC:1,2014-05-29T17:30:00Z,26.4040,-81.8810,28.29,1111122 
COMPS,ioos:station:USF.COMPS:BGC:1,2014-05-29T17:36:00Z,26.4040,-81.8810,28.45,1111122 
COMPS,ioos:station:USF.COMPS:BGC:1,2014-05-29T17:42:00Z,26.4040,-81.8810,28.48,1111122 
COMPS,ioos:station:USF.COMPS:BGC:1,2014-05-29T17:48:00Z,26.4040,-81.8810,28.33,1111122 
COMPS,ioos:station:USF.COMPS:BGC:1,2014-05-29T17:54:00Z,26.4040,-81.8810,26.64,1111122 
COMPS,ioos:station:USF.COMPS:BGC:1,2014-05-29T18:00:00Z,26.4040,-81.8810,25.83,1111122 
COMPS,ioos:station:USF.COMPS:BGC:1,2014-05-29T18:06:00Z,26.4040,-81.8810,25.61,1111122 